Theta_e
303 303 302 301 299 299 300 299 303 305 306 301 300 300 309 314 317 319 321 323 325 326 327 328 327 326 327 326 326 327 327 328 330 330 332 330 329 333 335 336 336 337 337 336 332
301 304 304 304 300 298 300 301 299 303 305 305 301 300 302 311 314 317 319 322 324 325 327 328 328 327 327 327 326 327 328 328 325 324 327 328 328 331 333 336 336 335 335 332 331
299 303 303 304 302 299 297 301 302 299 302 304 303 300 300 309 313 313 316 319 322 324 326 328 328 328 328 327 326 327 328 325 324 325 324 326 327 329 330 331 336 335 334 331 330
303 301 301 303 302 301 299 299 303 300 298 302 303 301 299 309 312 319 318 319 320 323 326 327 327 328 328 328 327 327 327 327 324 323 324 324 325 328 329 330 333 336 333 329 330
301 299 300 302 301 301 296 296 302 302 298 299 301 302 299 307 312 314 317 319 321 323 325 327 327 328 328 327 327 326 326 327 323 323 324 324 324 325 329 331 333 337 333 328 328
301 299 300 301 301 299 296 296 300 301 300 299 301 303 300 308 307 312 315 317 321 322 323 325 327 328 328 327 327 326 326 326 324 324 325 325 326 325 332 335 337 337 333 327 328
303 302 302 300 300 300 298 298 300 301 300 299 300 304 301 302 311 312 313 316 319 321 323 324 325 326 327 327 327 327 327 326 326 324 325 326 326 326 331 334 336 335 333 329 329
306 303 303 302 300 300 301 300 299 299 300 298 299 303 302 301 305 310 312 315 318 321 321 322 323 326 325 326 326 328 327 329 326 325 325 325 327 325 329 333 335 336 336 333 331
304 305 304 303 299 300 300 301 298 300 300 298 301 303 305 308 306 307 308 312 316 318 317 319 321 325 325 328 328 328 331 329 327 325 324 325 326 326 328 329 333 336 336 335 335
302 304 305 303 299 299 299 300 299 301 300 301 303 306 306 306 309 308 307 309 316 317 317 316 319 325 326 326 330 330 331 329 327 325 324 325 325 325 327 329 329 336 336 336 336
304 302 304 304 299 299 299 299 304 305 304 304 305 305 306 306 309 309 309 310 312 317 317 318 322 320 327 325 326 326 328 329 325 324 326 326 325 324 326 326 326 334 336 336 335
305 303 304 302 300 297 300 303 304 303 303 299 303 303 304 306 308 309 309 311 314 317 317 317 317 314 320 324 325 326 328 328 325 323 325 326 326 324 323 324 325 326 334 336 336
304 303 304 300 298 300 302 303 302 301 304 304 304 304 305 307 308 308 309 311 313 315 317 316 316 315 316 322 327 327 328 328 327 324 323 325 327 326 324 324 324 327 332 334 335
302 303 300 299 302 301 301 302 300 303 302 300 305 304 305 306 307 310 310 311 312 315 316 317 316 316 316 316 323 328 326 325 326 327 328 325 330 326 325 324 321 323 332 332 332
303 299 299 301 300 303 301 299 301 304 293 303 305 304 304 307 307 309 309 309 312 313 315 317 317 315 316 314 321 325 324 325 325 325 326 327 327 326 326 327 320 323 324 325 327
299 300 299 301 302 300 298 301 303 294 294 298 304 305 306 306 307 308 309 309 311 312 313 315 315 315 314 315 318 320 321 319 320 322 325 326 326 325 327 327 321 321 318 322 322
300 300 302 302 303 299 300 304 294 291 296 298 301 304 304 305 306 308 309 309 308 309 308 314 314 316 317 318 317 317 320 321 323 323 325 324 326 326 319 321 322 316 313 316 318
300 302 303 303 302 300 302 294 291 287 290 300 302 303 304 305 305 308 308 310 309 311 309 311 313 315 315 317 319 319 318 322 325 325 324 319 326 322 314 317 318 314 312 310 310
302 302 302 303 303 302 301 290 292 293 295 297 299 302 294 302 305 307 309 310 309 310 310 308 312 314 314 315 316 319 320 317 316 309 316 320 321 315 313 312 311 308 305 305 308
302 302 301 301 301 302 297 298 297 302 302 301 299 299 305 293 302 303 306 307 311 310 309 312 312 311 313 315 315 317 316 319 317 314 320 321 322 321 313 312 311 308 304 305 305
303 303 301 301 301 301 296 300 300 302 301 302 301 300 303 305 300 304 302 305 308 311 308 310 312 313 313 314 316 317 318 317 316 314 315 321 320 308 313 311 310 307 304 303 304
302 295 300 300 299 296 299 299 299 302 301 301 300 303 296 300 303 303 304 306 307 309 310 310 309 314 314 309 309 312 317 318 318 319 314 315 315 306 307 311 309 306 303 303 303
302 301 300 300 290 299 298 297 299 300 301 302 303 303 302 302 303 304 303 306 307 308 310 310 311 311 311 309 309 312 313 314 314 313 315 317 315 306 309 309 309 305 304 304 304
302 292 299 300 298 296 298 299 299 300 300 300 301 301 303 303 302 302 306 307 306 307 308 310 310 311 307 312 310 311 311 312 314 313 313 314 311 308 308 308 308 306 305 305 304
300 297 297 291 293 298 298 299 299 298 299 299 300 301 302 299 304 304 302 306 306 306 307 309 311 309 309 310 311 311 311 311 314 314 314 314 313 310 307 308 308 307 305 305 305
300 296 295 297 296 298 294 292 298 294 297 299 299 301 300 300 300 302 302 303 305 305 306 308 309 308 307 307 309 311 312 311 313 313 313 313 314 311 309 309 308 307 306 305 305
299 298 301 298 296 293 294 293 297 298 298 298 299 299 301 298 297 296 296 297 300 304 305 307 303 308 309 304 305 301 307 311 312 311 312 314 312 309 307 308 308 307 306 305 305
Wind_Speed
7 7 8 9 9 9 10 11 11 10 10 11 13 13 14 15 17 17 16 17 15 16 15 16 17 16 11 8 8 6 2 3 2 7 4 13 2 4 8 15 10 5 7 6 38
6 7 8 10 12 11 10 12 12 12 10 10 12 13 13 14 19 21 21 17 16 15 14 14 13 13 8 3 4 4 2 3 0 2 4 7 1 4 5 14 7 14 13 20 42
7 8 9 9 12 12 10 11 12 14 13 12 11 12 11 10 15 19 20 19 15 17 17 15 13 13 8 9 6 4 4 3 3 7 7 3 3 2 6 2 11 18 21 28 37
12 13 6 9 11 13 13 11 11 10 12 14 14 13 11 8 7 4 11 16 18 16 17 15 13 9 8 7 18 4 8 3 3 4 3 2 3 1 5 6 6 14 17 31 35
10 10 5 9 11 14 15 11 10 12 12 11 11 14 12 10 16 13 12 7 17 17 19 17 15 14 7 12 13 10 8 6 6 3 2 2 4 3 11 11 12 19 17 26 33
9 7 7 9 10 13 12 9 10 12 12 11 10 10 12 11 12 17 18 12 13 18 20 17 8 15 7 10 19 8 17 15 11 8 4 0 3 1 15 18 19 17 16 24 30
9 8 8 10 9 10 10 10 11 12 12 10 11 9 12 22 8 10 15 13 14 15 22 19 17 11 9 7 21 16 9 14 10 11 4 4 4 3 19 16 18 14 16 24 26
12 8 9 11 9 9 10 13 12 11 12 10 9 10 11 9 18 18 12 12 14 14 15 20 17 17 9 6 7 8 4 14 12 10 7 8 5 5 17 23 22 19 18 24 25
12 11 8 11 9 9 11 13 10 11 10 8 9 7 10 5 13 17 22 16 11 17 16 12 11 9 10 5 10 8 12 12 7 18 6 6 4 4 16 18 24 27 23 22 22
11 11 8 10 8 8 11 11 9 12 5 6 9 7 9 8 10 13 18 19 13 12 11 9 3 5 7 9 13 21 16 14 8 4 6 7 7 3 13 11 16 30 26 23 24
10 9 8 9 7 7 10 10 7 4 5 8 5 10 16 13 12 14 16 16 14 12 8 6 5 11 11 21 7 19 17 13 4 0 5 4 6 6 8 8 8 24 28 26 19
9 7 7 7 5 5 5 5 7 8 10 13 17 18 18 12 9 11 10 9 7 9 6 3 8 12 11 9 14 7 22 17 2 3 3 3 3 2 11 11 10 12 24 25 25
7 7 5 3 2 4 4 5 9 9 5 10 8 10 9 9 5 10 10 9 4 5 10 9 4 6 13 11 18 15 14 22 7 5 3 4 3 6 6 10 11 11 23 25 29
8 5 3 2 1 4 4 7 7 5 3 5 1 2 6 5 5 5 5 7 4 4 5 6 10 8 8 18 8 11 11 14 12 11 9 4 6 7 12 9 8 14 19 30 31
8 7 5 2 1 2 5 7 1 2 5 4 2 5 5 5 9 1 7 11 3 4 3 2 10 6 3 9 6 3 14 15 10 6 6 9 3 4 12 18 7 14 26 27 25
10 8 6 2 3 4 1 2 1 5 4 6 6 6 3 4 4 7 3 7 3 3 1 1 4 9 10 7 6 6 15 10 5 4 4 7 7 3 6 23 8 16 24 27 24
10 7 3 4 1 2 3 2 4 4 4 8 4 7 8 4 3 3 5 1 2 2 0 2 3 2 13 8 4 4 5 3 3 2 3 8 6 3 4 2 15 19 22 23 20
9 6 3 4 4 3 0 4 5 4 4 4 4 7 3 5 3 2 6 3 2 1 2 2 0 4 3 5 6 7 2 2 4 3 4 1 4 2 1 16 20 22 25 23 20
8 5 3 3 1 0 2 4 6 4 3 5 6 3 5 5 2 3 1 2 3 2 2 4 3 1 4 3 2 7 2 2 4 3 4 4 1 3 7 9 17 21 21 19 18
8 5 4 2 1 1 3 3 0 1 2 2 2 2 3 5 4 3 2 3 2 6 7 3 2 1 2 2 5 2 10 2 1 2 2 3 3 3 7 10 9 13 20 20 19
8 2 0 1 1 1 2 1 3 1 2 2 2 3 3 4 0 3 3 4 4 3 10 2 3 1 2 3 1 2 2 3 4 1 4 4 4 1 5 13 15 18 23 24 25
4 3 2 0 4 2 0 0 3 2 1 2 2 4 3 4 3 2 3 2 10 3 3 4 2 2 2 2 3 1 1 3 4 3 1 1 2 2 4 16 19 20 24 25 27
3 2 2 0 2 1 1 3 3 3 3 1 2 1 1 1 3 3 4 3 8 6 3 3 1 3 3 3 2 2 3 2 3 3 3 4 2 2 10 13 18 25 27 28 29
3 2 1 2 2 3 1 2 2 5 3 2 2 3 2 3 4 3 3 4 6 4 11 2 1 2 3 2 3 4 5 5 3 3 3 3 3 2 6 10 17 22 28 31 32
3 2 3 1 2 3 1 1 2 2 2 1 2 2 2 3 2 4 2 2 4 6 6 1 2 1 2 2 4 5 5 5 3 4 5 4 4 5 12 13 26 30 28 30 30
4 4 3 2 2 4 2 3 5 4 1 1 2 4 3 3 1 2 4 3 1 2 4 2 2 1 4 5 5 4 7 6 8 5 5 8 5 5 7 15 21 26 28 30 32
7 4 2 2 1 3 3 4 2 4 2 2 0 3 3 2 4 6 5 8 5 4 1 1 2 2 3 4 4 5 7 10 8 5 10 8 9 3 4 13 26 30 31 32 35
Wind_Direction
340 349 359 352 333 308 300 290 291 299 311 296 288 276 277 274 268 269 265 247 248 254 256 249 236 239 256 267 267 294 15 261 224 149 180 245 281 72 105 109 83 89 151 174 159
309 328 333 343 341 320 302 303 291 290 299 311 297 284 271 281 272 262 254 253 245 252 252 249 230 223 214 233 239 193 232 238 117 56 132 162 185 132 128 118 81 100 115 137 154
318 309 329 326 335 335 312 305 307 293 296 300 308 292 272 279 293 273 257 248 245 249 251 248 224 193 185 202 214 214 216 314 29 73 40 38 83 81 118 58 171 162 150 154 157
313 322 293 319 328 325 322 298 305 297 289 300 305 300 271 246 235 281 241 230 234 245 246 245 235 195 192 184 223 248 248 309 107 76 52 8 311 114 98 128 165 173 157 158 162
313 328 315 316 317 324 317 292 294 313 297 285 298 301 285 250 249 258 288 265 225 225 234 225 219 201 214 194 215 226 252 235 139 118 91 308 308 123 108 130 134 151 155 161 163
321 317 311 315 317 329 329 303 297 308 305 292 288 288 278 271 254 256 269 262 239 215 229 219 221 214 250 228 196 213 231 243 187 199 183 42 318 178 134 138 140 152 159 163 167
302 308 322 316 313 322 327 311 304 310 311 293 289 292 270 245 258 269 254 250 239 230 219 220 219 205 212 198 212 242 222 234 213 193 183 152 309 201 148 153 147 155 155 162 167
279 295 306 317 303 305 320 317 308 305 311 292 282 285 262 271 250 255 270 250 233 216 220 222 226 230 206 158 146 205 197 212 233 207 197 134 245 238 164 159 159 162 159 165 171
265 271 300 312 293 298 314 317 313 309 305 285 277 251 270 292 249 251 260 260 252 234 240 234 276 229 166 157 176 193 207 204 189 190 167 139 225 193 172 173 168 171 171 169 180
261 259 278 302 290 299 314 317 316 308 299 272 260 291 270 268 287 248 237 245 238 226 217 231 242 259 174 181 208 197 203 195 168 191 153 166 208 99 178 167 164 174 173 172 182
254 250 253 297 292 306 322 346 357 1 309 234 281 250 301 304 290 266 236 234 251 224 194 185 211 241 250 198 199 209 199 180 155 265 124 164 204 179 218 188 175 176 172 177 180
240 232 243 291 294 310 335 29 333 314 302 281 261 259 276 292 295 271 210 212 223 251 174 155 244 298 300 255 216 216 199 201 72 61 96 123 251 290 238 238 236 177 181 177 157
222 209 247 270 326 339 338 305 298 306 281 303 253 260 274 275 280 297 220 219 277 248 198 197 210 329 354 296 196 202 200 191 161 125 101 125 268 252 282 230 164 130 177 165 168
187 187 178 178 48 343 311 317 309 319 338 284 251 304 258 270 273 311 248 228 229 261 211 218 199 231 330 301 235 171 177 170 155 167 212 156 258 251 230 257 182 133 148 152 155
162 156 155 145 35 344 315 307 302 342 25 294 337 299 279 274 315 306 229 219 275 285 214 211 165 183 298 284 342 335 142 147 146 120 135 174 163 260 207 221 215 122 136 148 155
149 146 144 128 21 332 315 148 280 42 277 321 313 333 291 250 283 313 281 214 233 299 323 95 145 163 177 249 320 325 109 68 77 99 162 182 178 254 192 207 161 124 130 151 155
147 143 164 161 183 14 118 310 35 115 326 312 331 335 322 276 278 65 347 228 170 83 297 106 12 124 149 158 191 312 55 124 116 160 148 173 176 211 328 147 152 139 135 150 158
144 134 102 56 60 108 139 47 73 234 242 316 317 313 281 330 301 93 359 234 259 94 136 121 353 201 175 193 161 161 116 86 109 143 128 28 199 210 15 97 122 127 143 153 160
139 126 83 73 68 124 291 57 204 213 225 328 328 331 311 328 344 51 2 269 231 157 214 134 212 334 57 328 169 156 174 70 72 16 94 163 236 84 95 91 115 118 120 141 155
127 78 60 64 35 214 82 235 170 274 285 264 298 136 314 298 18 24 342 282 277 174 93 338 165 32 291 290 16 187 139 99 353 137 171 151 194 200 164 147 142 135 137 157 158
126 163 38 311 29 116 132 9 296 169 332 287 292 305 321 330 152 345 270 300 16 251 145 135 263 200 189 37 173 91 131 103 133 112 154 137 240 125 181 174 168 158 161 164 166
153 81 149 48 58 51 191 277 302 279 6 275 257 250 170 310 316 261 264 258 350 40 213 155 308 137 63 64 356 309 110 195 146 200 319 107 258 345 291 168 160 157 160 169 168
120 104 144 98 114 135 290 285 261 279 217 251 267 282 38 286 296 234 290 28 9 9 13 140 315 98 96 28 19 15 330 313 112 81 186 127 237 19 119 138 160 152 161 166 175
144 47 104 159 153 157 287 288 287 225 272 167 268 303 238 249 201 291 300 8 10 1 345 55 297 76 156 174 139 171 218 221 130 105 163 203 170 212 157 158 158 162 165 175 183
150 139 171 201 273 181 255 252 272 284 231 246 293 224 327 306 245 224 273 269 11 359 340 91 19 246 292 34 172 193 218 226 148 164 171 209 227 192 194 184 177 170 168 176 190
160 150 153 192 229 185 212 261 204 277 207 201 209 321 255 237 275 322 316 25 43 334 354 5 46 75 351 345 1 334 183 205 217 257 289 269 285 235 193 171 159 174 179 184 195
191 189 156 138 222 91 226 223 256 160 233 261 322 320 291 354 269 274 276 290 279 321 264 285 120 89 246 331 20 350 229 190 207 205 215 210 227 173 141 172 176 186 188 192 196